#timestamp,LO_Frequency,Hit,StdDev 
1669564815.4,286046998.2,N
1669564835.2,286047001.1,N
1669564855.0,286046998.5,N
1669564856.0,286046998.5,N
1669564875.8,286046999.3,N
1669564895.6,286046997.0,N
1669564915.5,286046997.5,N
1669564935.3,286046996.7,N
1669564955.1,286046999.5,N
1669564975.9,286046999.2,N
1669564995.7,286046999.1,N
1669565015.6,286046998.6,N
1669565035.4,286046996.6,N
1669565055.2,286046999.4,N
1669565075.1,286046999.3,N
1669565076.0,286046999.3,N
1669565095.8,286046998.2,N
1669565115.6,286046998.9,N
1669565135.5,286046996.5,N
1669565155.3,286046998.4,N
1669565175.2,286046998.8,N
1669565195.9,286047001.2,N
1669565215.7,286046998.5,N
1669565235.6,286047001.2,N
1669565255.4,286047001.1,N
1669565275.2,286046999.7,N
1669565295.1,286047000.4,N
1669565296.0,286047000.4,N
1669565315.8,286047002.8,N
1669565335.7,286047002.8,N
1669565355.5,286047000.4,N
1669565375.3,286046999.7,N
1669565395.2,286047000.9,N
1669565415.9,286046998.7,N
1669565435.7,286046996.7,N
1669565455.6,286047000.8,N
1669565475.4,286046998.1,N
1669565495.3,286047000.6,N
1669565515.1,286047000.3,N
1669565516.0,286047000.3,N
1669565535.8,286047002.4,N
1669565555.7,286047002.8,N
1669565575.5,286047002.4,N
1669565595.3,286047001.2,N
1669565615.2,286046998.4,N
1669565635.0,286046999.4,N
1669565635.9,286046999.4,N
1669565655.8,286046999.5,N
1669565675.6,286046996.6,N
1669565695.4,286046998.8,N
1669565715.3,286047000.6,N
1669565735.1,286047000.6,N
1669565755.8,286046998.1,N
1669565775.7,286046999.9,N
1669565795.5,286047000.0,N
1669565815.4,286047002.3,N
1669565835.2,286047002.6,N
1669565855.0,286047002.5,N
1669565855.9,286047002.5,N
1669565875.8,286046998.1,N
1669565895.6,286047000.5,N
1669565915.5,286047000.9,N
1669565935.3,286046999.8,N
1669565955.1,286047000.1,N
1669565975.9,286047002.8,N
1669565995.7,286047000.4,N
1669566015.5,286047000.2,N
1669566035.4,286047011.9,Y
1669566055.2,286046998.4,P
1669566075.1,286046998.4,N
1669566076.0,286046998.4,N
1669566095.8,286046996.6,Y
1669566115.6,286047000.8,P
1669566135.5,286047000.1,N
1669566155.3,286046998.4,N
1669566175.2,286046997.1,Y
1669566195.9,286046995.3,P
1669566215.7,286046996.7,N
1669566235.6,286047001.2,N
1669566255.4,286047000.9,N
1669566275.2,286047001.7,N
1669566295.1,286047001.5,N
1669566296.0,286047001.5,N
1669566315.8,286047001.8,N
1669566335.7,286047003.2,N
1669566355.5,286047003.1,N
1669566375.3,286047004.4,N
1669566395.2,286047002.1,N
1669566415.0,286047001.9,N
1669566415.9,286047001.9,N
1669566435.8,286047001.3,N
1669566455.6,286047002.0,N
1669566475.4,286047001.9,N
1669566495.3,286047000.3,N
1669566515.1,286047000.4,N
1669566535.8,286047002.4,N
1669566555.7,286046999.7,N
1669566575.5,286047000.4,N
1669566595.3,286047000.1,N
1669566615.2,286047002.6,N
1669566635.0,286047004.0,N
1669566635.9,286047004.0,N
1669566655.8,286047001.8,N
1669566675.6,286047001.6,N
1669566695.4,286047002.1,N
1669566715.3,286047001.4,N
1669566735.1,286047003.8,N
1669566755.9,286047004.1,N
1669566775.7,286047003.8,Y
1669566795.5,286047002.4,P
1669566815.4,286047000.0,N
1669566835.2,286046999.9,N
1669566855.1,286047000.3,N
1669566856.0,286047000.3,N
1669566875.8,286047002.5,N
1669566895.6,286047000.1,N
1669566915.5,286047002.6,N
1669566935.3,286046999.9,N
1669566955.1,286047002.6,N
1669566975.9,286047002.0,N
1669566995.7,286047002.1,N
1669567015.6,286047001.3,N
1669567035.4,286047002.2,N
1669567055.2,286047001.1,N
1669567075.1,286046999.6,N
1669567076.0,286046999.6,N
1669567095.8,286046999.1,N
1669567115.6,286046998.9,N
1669567135.5,286046998.9,N
1669567155.3,286047001.1,N
1669567175.1,286047000.0,N
1669567195.9,286047002.5,N
1669567215.7,286047002.1,N
1669567235.6,286046999.7,N
1669567255.4,286047000.9,N
1669567275.2,286047000.4,N
1669567295.1,286046999.8,N
1669567296.0,286046999.8,N
1669567315.8,286047000.5,N
1669567335.7,286047001.1,N
1669567355.5,286047002.4,N
1669567375.3,286047000.8,N
1669567395.2,286047001.2,N
1669567415.9,286047000.4,N
1669567435.7,286046998.5,N
1669567455.6,286046998.2,N
1669567475.4,286047000.0,N
1669567495.3,286047001.7,N
1669567515.1,286047000.0,N
1669567516.0,286047000.0,N
1669567535.8,286047002.5,N
1669567555.7,286047001.1,N
1669567575.5,286046998.4,N
1669567595.3,286047000.6,N
1669567615.2,286047000.0,N
1669567635.0,286047001.9,N
1669567635.9,286047001.9,N
1669567655.8,286047002.6,N
1669567705.6,286047003.7,E
1669567715.5,286047001.3,N
1669567735.4,286046998.6,P
1669567755.2,286046999.7,N
1669567775.1,286047006.7,Y
1669567776.0,286047006.7,P
1669567795.8,286047009.6,N
1669567815.6,286047011.2,N
1669567835.5,286047008.1,N
1669567855.3,286047006.9,N
1669567875.2,286047005.9,N
1669567895.9,286047006.0,N
1669567915.7,286047003.1,N
1669567935.6,286047003.4,N
1669567955.4,286047003.3,N
1669567975.2,286047001.6,N
1669567995.1,286047002.2,N
1669567996.0,286047002.2,N
1669568015.8,286047002.5,N
1669568035.7,286047003.6,N
1669568055.5,286047002.6,N
1669568075.3,286047001.0,N
1669568095.2,286047011.9,Y
1669568115.0,286046995.6,P
1669568115.9,286046995.6,N
1669568135.8,286046995.5,N
1669568155.6,286046998.0,N
1669568175.4,286046998.0,N
1669568195.3,286046993.9,N
1669568215.1,286046992.1,N
1669568235.9,286046993.9,N
1669568255.7,286046993.8,N
1669568275.5,286046993.4,N
1669568295.4,286046993.4,N
1669568315.2,286046992.6,N
1669568335.0,286046994.7,N
1669568336.0,286046994.7,N
1669568355.8,286046993.8,N
1669568375.6,286046994.3,N
1669568395.5,286046993.1,N
